Regional Weather Roundup
Issued by NWS

Home | Current Version | Previous Version | Text Only | Print | Product List | Glossary Off
Versions: 1 2 3 4 5 6 7 8 9 10 11 12 13 14 15 16 17 18 19 20 21 22 23 24 25 26 27 28 29 30 31 32 33 34 35 36 37 38 39 40 41 42 43 44 45 46 47 48 49 50

000
ASUS43 KFSD 241410
RWRSD

WEATHER ROUNDUP FOR SOUTH DAKOTA
NATIONAL WEATHER SERVICE SIOUX FALLS SD
900 AM CDT TUE APR 24 2018

NOTE: "FAIR" INDICATES FEW OR NO CLOUDS BELOW 12,000 FEET WITH NO
SIGNIFICANT WEATHER AND/OR OBSTRUCTIONS TO VISIBILITY.


SDZ001>005-009-010-012>017-241500-
NORTHWEST AND NORTH CENTRAL SOUTH DAKOTA

CITY           SKY/WX    TMP DP  RH WIND       PRES   REMARKS
BUFFALO          N/A     38  32  79 NW16      30.41R
FAITH            N/A     33  33 100 N14       30.43R WCI  23
MOBRIDGE       LGT RAIN  36  34  92 N10       30.37R
$$

SDZ012>016-024>037-041>051-057-063-072>074-241500-
SOUTHWEST AND SOUTH CENTRAL SOUTH DAKOTA

CITY           SKY/WX    TMP DP  RH WIND       PRES   REMARKS
RAPID CTY ARPT FLURRIES  35  31  85 N22       30.45R WCI  23
PIERRE         LGT SNOW  37  36  96 N30G39    30.31R FOG
CUSTER         CLOUDY    29  21  72 N21G28    30.37R WCI  16
ELLSWORTH AFB  CLOUDY    35  35 100 NW20      30.45  WCI  24
PHILIP         MIX PCPN  36  36 100 N23G32    30.39R
PINE RIDGE     LGT RAIN  35  33  92 N18G28    30.42R FOG     WCI  24
SPEARFISH      LGT SNOW  32  32 100 MISG      30.49R
WINNER         LGT RAIN  48  44  86 NW20      30.19R FOG
$$

SDZ004>011-016>023-039-040-241500-
NORTHEAST SOUTH DAKOTA

CITY           SKY/WX    TMP DP  RH WIND       PRES   REMARKS
ABERDEEN       LGT RAIN  42  39  89 NE22      30.33R FOG
WATERTOWN      LGT RAIN  43  39  86 N23G35    30.23R
BROOKINGS      CLOUDY    45  38  76 N13       30.23R
SISSETON         N/A     43  40  89 N21G30    30.31R
$$

SDZ017-020-022-023-036>040-048>070-241500-
SOUTHEAST SOUTH DAKOTA

CITY           SKY/WX    TMP DP  RH WIND       PRES   REMARKS
SIOUX FALLS    CLOUDY    48  41  76 N7        30.18R
HURON          LGT RAIN  44  40  85 NE23G32   30.23R
CHAMBERLAIN    CLOUDY    49  49  99 N13G22    30.20R
MITCHELL       CLOUDY    50  46  86 NE13      30.19R
YANKTON        CLOUDY    52  45  77 SW3       30.17R
$$

ABBREVIATIONS USED IN REMARKS
   TC - TEMPERATURE IN CELSIUS
  WCI - WIND CHILL INDEX
   HX - HEAT INDEX
  VSB - VISIBILITY





USA.gov is the U.S. government's official web portal to all federal, state and local government web resources and services.